Location: Strada
(43.6500°N, 11.3000°E)
Time: 17:45:20
(UTC+00:00)

Daily predictions for brighter satellites

Satellite Brightness Start Highest point End
(mag) Time Altitude Azimuth Time Altitude Azimuth Time Altitude Azimuth
Cosmos 1844 Rocket 3.6 19:25:50 10° N 19:30:54 35° NE 19:35:57 10° ESE
DMSP B5D2-2 4.3 19:28:53 10° N 19:34:08 79° WNW 19:39:19 10° SSW
H-2A ROCKET BODY 4.1 19:31:09 10° SW 19:35:01 22° SSE 19:44:34 10° ESE
Meteor 2-10 Rocket 3.8 19:31:26 10° N 19:36:26 52° ENE 19:41:34 10° SSE
Cosmos 1626 Rocket 3.6 19:33:30 10° S 19:37:57 87° E 19:42:27 10° N
Cosmos 1400 Rocket 4.3 19:35:31 10° NNE 19:38:42 22° ENE 19:41:49 10° ESE
Lacrosse 5 rocket 4.2 19:37:12 10° WNW 19:40:31 21° NNW 19:43:41 10° NNE
OAO 3 Rocket 4.3 19:37:29 10° WSW 19:41:43 29° S 19:45:59 10° SE
Spot 2 Rocket 4.2 19:37:09 10° SE 19:41:50 39° ENE 19:46:32 10° N
ATLAS 5 CENTAUR R/B 4.3 19:39:39 10° W 19:43:06 20° NW 19:45:06 10° N
Cosmos 1745 Rocket 4.1 19:40:05 10° S 19:46:09 62° E 19:52:19 10° NNE
Resurs 1-3 4.1 19:45:20 10° S 19:49:39 60° W 19:54:00 10° NNW
Cosmos 1125 Rocket 3.7 19:46:40 10° NNW 19:51:55 72° WSW 19:57:09 10° S
Meteor 1-21 Rocket 4.3 19:49:20 10° S 19:55:13 77° E 20:01:10 10° NNE
SPOT 1/Viking Rocket 4.2 19:51:15 10° SE 19:55:59 40° ENE 20:00:47 10° N
VEP-3 4.3 19:56:56 10° SSW 20:00:18 15° S 20:03:43 12° SE
Cosmos 2322 Rocket 2.9 19:55:20 10° SW 20:00:51 58° WNW 20:06:25 10° NNE
SL-08 ROCKET BODY 4.4 19:55:42 10° S 20:01:37 81° E 20:07:41 10° N
Alouette 2 Rocket 4.3 19:58:16 10° N 20:01:58 39° ENE 20:06:10 13° SE
SPOT 3 Rocket 4.4 19:56:57 10° S 20:01:59 50° W 20:07:05 10° NNW
NOSS 7 (D) 4.2 20:00:18 10° SW 20:03:10 65° NW 20:05:51 10° NNE
Cosmos 2237 4.2 19:57:47 10° SSW 20:03:32 85° ESE 20:09:18 10° NNE
OAO 2 Rocket 4.3 20:00:51 10° SW 20:05:25 29° S 20:09:32 12° ESE
Cosmos 1328 4.1 20:02:03 10° SSE 20:05:51 47° E 20:09:42 10° NNE
SAR-Lupe-2 4.2 20:07:42 10° NNE 20:11:02 35° E 20:13:37 15° SSE
Cosmos 1455 2.2 20:09:16 10° N 20:13:08 84° W 20:16:46 11° S
Cosmos 1825 Rocket 3.6 20:10:47 10° S 20:15:09 64° E 20:19:35 10° NNE
ATLAS CENTAUR R/B 2.9 20:16:42 10° N 20:19:36 21° NE 20:22:16 11° E
Cosmos 1703 3.1 20:15:54 10° S 20:19:45 81° E 20:23:39 10° N
COSMOS 2428 3.3 20:15:40 10° S 20:20:45 36° ESE 20:25:53 10° NE
Cosmos 1812 Rocket 4.4 20:19:10 10° NNW 20:23:20 47° W 20:27:29 10° SSW
SL-24 R/B - RUBIN 2 4.4 20:17:39 10° SSW 20:23:34 71° ESE 20:30:06 10° NE
Cosmos 2322 3.7 20:18:55 10° S 20:24:34 65° ESE 20:30:15 10° NNE
Cosmos 1844 3.8 20:19:25 10° NNW 20:25:14 73° ENE 20:29:32 18° SSE
Delta 2 Rocket 4.2 20:25:05 10° SW 20:27:41 21° S 20:28:10 20° S
Cosmos 1709 Rocket 4.0 20:24:56 10° S 20:31:12 77° E 20:37:34 10° N
NOSS 3-3 (A) 4.0 20:27:35 10° SSW 20:33:07 51° ESE 20:39:18 10° NE
NOSS 3-3 (C) 4.0 20:27:41 10° SSW 20:33:14 50° ESE 20:39:24 10° NE
Terra 2.6 20:31:40 19° SE 20:34:34 38° ENE 20:38:58 10° N
Cosmos 2237 Rocket 3.7 20:33:12 16° ESE 20:34:39 18° E 20:38:23 10° ENE
CARTOSAT-1 3.7 20:32:57 21° SSE 20:35:39 58° ENE 20:39:55 10° N
Atlas Centaur 2 3.6 20:30:57 10° SW 20:35:51 25° S 20:38:47 19° SE
Cosmos 2333 4.1 20:30:45 10° SSW 20:36:22 78° ESE 20:42:04 10° NNE
Cosmos 2219 Rocket 2.3 20:31:21 10° S 20:36:45 54° ESE 20:42:12 10° NNE
Cosmos 2360 Rocket 3.0 20:33:14 10° SW 20:38:45 55° WNW 20:44:19 10° NNE
IGS 5A 3.8 20:35:34 15° S 20:38:52 63° W 20:43:00 10° NNW
Cosmos 1538 Rocket 4.2 20:35:01 13° S 20:39:36 51° ESE 20:44:46 10° NNE
IRIS 3.8 20:40:19 10° WSW 20:43:07 47° S 20:43:19 45° SSE
DELTA 2 R/B (1) 4.3 20:39:21 10° SW 20:44:12 31° SSE 20:49:03 10° E
BREEZE-M (TANK) 4.5 20:42:01 14° S 20:45:31 37° ESE 20:58:17 10° ENE
Cosmos 2333 Rocket 2.2 20:40:54 10° SSW 20:46:32 70° ESE 20:52:14 10° NNE
Resurs 01 Rocket 3.8 20:47:32 10° SW 20:50:53 21° W 20:54:14 10° NW
ATLAS 2AS CENTAUR R/B 4.2 20:45:34 10° NNW 20:52:21 33° NE 20:58:39 10° E
Cosmos 1315 Rocket 3.1 20:48:25 10° N 20:52:27 54° ENE 20:54:13 30° SE
Cosmos-2242 3.8 20:51:41 10° NNW 20:55:53 48° W 20:59:05 16° SSW
Cosmos 773 Rocket 4.2 20:51:18 10° SSW 20:56:35 75° WNW 21:01:54 10° NNE
ERS-1 Rocket 3.0 20:56:51 23° S 21:00:04 78° WSW 21:05:08 10° NNW
Cosmos 2221 3.2 20:56:48 10° N 21:00:56 39° ENE 21:02:30 29° ESE
GEOS 3 Rocket 4.5 20:58:38 10° NNE 21:03:53 55° NW 21:09:07 10° WSW
USA 215 3.2 21:00:32 10° NE 21:07:08 89° SSE 21:13:41 10° SW
Cosmos 1892 3.7 21:07:02 27° E 21:07:21 28° E 21:10:38 10° NNE
Cosmos 2278 Rocket 2.8 21:04:41 10° NNW 21:10:08 45° ENE 21:13:09 24° ESE
ATLAS 5 CENTAUR R/B 3.5 21:07:29 10° WSW 21:11:15 32° NW 21:15:27 10° NNE
Cosmos 1844 Rocket 3.7 21:09:43 10° NW 21:14:47 37° WSW 21:18:16 18° SSW
SPOT 5 3.2 21:13:57 25° S 21:16:49 62° WSW 21:21:38 10° NNW
SL-16 R/B 4.0 21:18:56 15° E 21:19:03 15° E 21:22:05 10° ENE
Lacrosse 5 rocket 4.4 21:19:13 10° NNW 21:21:01 12° N 21:22:46 10° NNE
Cosmos 2154 Rocket 4.3 21:23:04 30° SE 21:25:43 49° E 21:31:40 10° NNE
Cosmos 2058 3.2 21:25:00 42° SE 21:25:46 49° E 21:29:47 10° NNE
Nadezhda 3 Rocket 4.5 21:20:10 10° N 21:26:19 48° ENE 21:29:11 30° SE
BREEZE M DEB (TANK) 3.5 21:26:31 10° WNW 21:27:39 24° W 21:27:39 24° W
Cosmos 1408 3.7 21:29:06 29° E 21:29:06 29° E 21:31:59 10° NNE
Cosmos 2181 Rocket 4.5 21:24:00 10° NNW 21:30:11 56° W 21:34:15 21° SSW
Meteor 2-17 Rocket 4.4 21:27:25 31° S 21:30:28 70° E 21:36:30 10° NNE
In-Cosmos 22 Rocket 4.0 21:29:55 35° SSE 21:32:05 67° E 21:37:22 10° NNE
Cosmos 2074 Rocket 3.9 21:29:15 26° S 21:32:59 89° E 21:39:15 10° N
TSX-5 4.0 21:33:12 10° NNW 21:36:44 57° ENE 21:37:36 45° ESE
Cosmos 1076 Rocket 3.6 21:36:08 48° SE 21:36:57 58° E 21:41:10 10° NNE
Cosmos 1680 Rocket 3.7 21:35:42 39° SSE 21:37:23 55° ESE 21:42:36 10° NNE
USA 267 3.4 21:34:05 21° ESE 21:38:38 71° NE 21:45:10 10° NW
Cosmos 2084 3.7 21:42:53 10° NW 21:47:16 59° WSW 21:48:05 50° SSW
Cosmos 2151 3.9 21:47:18 32° E 21:47:28 32° E 21:51:17 10° NNE
Cosmos 1842 Rocket 4.0 21:43:28 10° NNW 21:47:42 52° W 21:49:02 37° SW
OAO 2 Rocket 4.5 21:44:57 10° WSW 21:48:29 28° SSW 21:48:29 28° SSW
Cosmos 923 Rocket 4.0 21:52:20 31° SSW 21:54:55 80° WNW 22:00:14 10° NNE
Cosmos 2327 Rocket 4.4 21:52:14 34° S 21:55:11 90° W 22:01:21 10° N
Cosmos 1825 2.7 21:58:09 44° E 21:58:09 44° E 22:01:32 10° NNE
ATLAS CENTAUR R/B 2.0 21:55:13 10° NW 21:58:26 35° WSW 21:58:26 35° WSW
ALOS 2 3.8 21:58:03 28° E 21:59:00 31° ENE 22:02:52 10° N
Cosmos 1980 3.6 21:56:55 31° SSW 21:59:47 87° WNW 22:05:28 10° NNE
Cosmos 44 4.1 22:05:15 30° E 22:05:15 30° E 22:08:18 10° NE
COSMOS 2428 4.1 21:59:47 10° WSW 22:04:59 36° NW 22:10:13 10° N
Cosmos 1869 4.4 22:04:57 10° NNW 22:08:36 34° W 22:09:23 31° WSW
Cosmos 1295 Rocket 4.4 22:06:31 40° S 22:08:54 83° E 22:15:02 10° N
GP-B 4.0 22:07:02 10° NNE 22:11:06 34° E 22:11:23 34° E
NOSS 0 Rocket 4.3 22:07:31 17° SW 22:12:14 63° WNW 22:18:23 10° NNE
Terra 3.5 22:10:34 19° SW 22:12:23 24° W 22:16:16 10° NW
Cosmos 962 Rocket 4.5 22:12:15 42° SSE 22:14:29 73° E 22:20:50 10° NNE
Cosmos 1624 Rocket 4.1 22:10:24 10° NNW 22:15:38 67° ENE 22:16:57 48° SE
NOSS 3-4 (A) 3.8 22:09:03 10° NW 22:16:06 83° NE 22:19:47 35° SE
NOSS 3-4 (C) 3.9 22:09:09 10° NW 22:16:13 83° NE 22:19:55 34° SE
Cosmos 2237 Rocket 2.4 22:14:58 27° SW 22:18:06 68° WNW 22:23:48 10° NNE
Genesis I 3.3 22:18:36 65° W 22:18:59 72° NW 22:22:53 10° NNE
Cosmos 2344 3.4 22:16:02 25° SSW 22:20:49 80° SE 22:28:45 10° NE
Nimbus 7 Rocket 4.5 22:14:57 10° NNE 22:20:50 61° ESE 22:22:21 46° SSE
Cosmos 2219 Rocket 4.2 22:16:26 10° WSW 22:21:01 26° NW 22:25:41 10° N
Atlas Centaur 2 4.3 22:19:26 10° WSW 22:21:21 16° SW 22:21:21 16° SW
DELTA 2 R/B (1) 3.6 22:24:39 10° WSW 22:36:22 - E 22:30:03 55° S
Cosmos 2333 Rocket 4.5 22:27:04 10° W 22:31:22 22° NW 22:35:43 10° N
Thor Agena Rocket 3.8 22:26:30 10° N 22:31:33 61° WNW 22:33:18 39° SW
BREEZE-M DEB (TANK) 2.9 22:38:58 10° WNW 22:41:22 35° NNW 22:41:22 35° NNW
Cosmos 1371 Rocket 4.1 22:38:08 10° NNW 22:43:21 63° WSW 22:44:15 54° SSW
ATLAS 2AS CENTAUR R/B 2.7 22:36:33 10° NW 22:44:03 74° WSW 22:46:24 45° SSE
EO 1 Del DPAF 4.2 22:41:05 10° N 22:44:36 38° WNW 22:44:59 37° W
Cosmos 1766 Rocket 3.4 22:44:24 81° S 22:44:36 88° ESE 22:49:02 10° N
Okean 3 Rocket 3.5 22:47:03 68° SW 22:47:27 74° W 22:51:53 10° N
Gbstr 26 Del rocket 4.3 22:49:28 26° ENE 22:49:28 26° ENE 22:51:29 10° ENE
Cosmos 1328 Rocket 3.4 22:45:59 10° N 22:50:18 72° E 22:50:25 72° E
Aureole 2 Rocket 4.0 22:47:27 10° NNW 22:48:59 29° NNW 22:48:59 29° NNW
Cosmos 1606 2.8 22:48:44 10° N 22:52:19 73° NW 22:52:19 73° NW
Cosmos 2218 Rocket 4.0 22:50:54 48° S 22:52:48 80° E 22:59:08 10° N
Cosmos 864 Rocket 4.5 22:52:04 49° SSE 22:53:49 75° E 23:00:07 10° N
Cosmos 2278 Rocket 3.4 22:49:13 10° NW 22:53:58 28° WSW 22:54:59 27° WSW
Cosmos 2297 3.6 22:50:01 10° NNW 22:55:48 86° ENE 22:57:12 54° SSE
Cosmos 2366 rocket 4.0 22:56:35 49° S 22:58:28 84° E 23:04:52 10° N
Cosmos 2228 Rocket 4.4 22:54:27 10° NNE 22:58:30 30° ENE 22:59:19 28° E
Cosmos 1420 Rocket 3.9 22:54:18 10° NNW 22:59:36 84° ENE 23:00:36 60° SSE
Cosmos 1633 3.7 23:01:11 36° ENE 23:01:11 36° ENE 23:03:52 10° NNE
Lacrosse 5 rocket 3.8 22:58:36 10° NNW 23:01:33 19° NNE 23:04:23 10° ENE
SL-16 R/B 2.2 23:00:46 49° SW 23:02:23 81° WNW 23:08:07 10° NNE
Cosmos 1943 Rocket 2.9 22:56:54 10° NNW 23:02:26 49° ENE 23:04:40 32° ESE
Cosmos 2056 Rocket 4.0 23:02:05 10° NNW 23:07:14 46° WSW 23:07:58 43° SW
Cosmos 1959 Rocket 4.4 23:06:20 49° SSW 23:08:07 81° W 23:14:21 10° N
YAOGAN 11 4.2 23:09:09 60° E 23:09:30 63° ENE 23:13:52 10° N
Cosmos 1743 Rocket 3.9 23:12:36 52° E 23:12:36 52° E 23:16:46 10° NNE
Cosmos 1048 Rocket 4.1 23:19:32 56° SE 23:20:10 61° ESE 23:25:22 10° NNE
Cosmos 332 Rocket 3.6 23:16:08 10° NNW 23:20:57 84° ENE 23:21:28 71° SE
USA 267 3.8 23:21:24 36° SW 23:21:54 36° SW 23:27:53 10° WNW
Meteor 2-3 Rocket 3.7 23:21:02 53° SSW 23:22:22 75° W 23:28:05 10° N
Helios 1A 3.0 23:24:53 69° W 23:24:53 69° W 23:28:54 10° NNW
Cosmos 405 3.6 23:26:16 10° N 23:29:08 54° N 23:29:08 54° N
Meteor 1-26 Rocket 4.4 23:28:03 10° NNW 23:33:59 65° W 23:35:20 51° SSW
Cosmos 1340 3.8 23:34:23 36° WNW 23:34:23 36° WNW 23:37:42 10° N
Cosmos 1452 Rocket 3.4 23:29:08 10° NNW 23:34:24 73° WSW 23:35:06 63° SSW
ALOS 2 4.0 23:35:27 26° W 23:35:27 26° W 23:39:01 10° NW
CZ-4C R/B 3.6 23:28:34 10° NNW 23:35:32 51° NE 23:43:30 10° ESE
Cosmos 1408 Rocket 4.2 23:35:56 42° W 23:36:17 43° WNW 23:40:30 10° N
Meteor 2-6 Rocket 4.4 23:30:59 10° N 23:36:25 58° ENE 23:37:54 43° SE
COSMOS 2455 2.8 23:30:21 10° NNW 23:36:26 87° ENE 23:38:24 46° SSE
PSLV R/B 3.5 23:32:21 10° NNE 23:36:34 67° ESE 23:36:34 67° ESE
SL-16 R/B 4.4 23:32:07 10° ESE 23:36:59 25° ENE 23:41:52 10° N
Cosmos 1603 3.9 23:36:25 49° SE 23:37:21 55° ESE 23:42:55 10° NNE
Cosmos 1151 Rocket 4.2 23:36:20 10° NNW 23:40:03 30° W 23:40:03 30° W
Cosmos 1500 Rocket 3.5 23:44:49 71° WSW 23:45:00 73° W 23:49:25 10° N
Cosmos 1727 Rocket 4.2 23:40:16 10° NNW 23:46:23 61° W 23:48:04 45° SW
Cosmos 2369 Rocket 2.2 23:41:22 10° NNW 23:47:00 75° ENE 23:48:49 44° SE
Resurs 1-4 Rocket 3.9 23:43:16 10° NE 23:47:02 19° E 23:48:44 17° ESE
ISS -1.3 23:51:00 16° E 23:51:00 16° E 23:51:53 10° ENE
Cosmos 371 Rocket 4.1 23:46:03 10° NW 23:50:25 36° W 23:50:25 36° W
SeaSat 1 3.6 23:46:38 10° NE 23:50:54 29° ESE 23:51:20 28° ESE
Cosmos 1000 Rocket 4.5 23:46:58 10° N 23:53:21 87° E 23:55:26 46° S
Helios 1B rocket 2.3 23:51:12 10° NNE 23:55:21 89° ESE 23:55:23 88° S
